Showing default

NUSAT-34 (AMELIA EARHART, 55045

Orbit data source: Space-Track

NUSAT-34 (AMELIA EARHART, 55045 is a payload satellite owned by URUGUS S.A. (AR) in SSO that was launched on Tue, 03 Jan 2023 UTC via an FALCON 9 launch vehicle from the Air Force Eastern Test Range (AFETR). Payload-class satellites include a variety of spacecraft equipped with specific instruments for various scientific and technological missions. These include communications satellites like Starlink; space stations such as the ISS; scientific satellites like the Hubble; Earth observation satellites from companies like Planet Labs, Umbra, and HawkEye 360; GPS; miniature CubeSats for education and research; and military/defense satellites.

Loading next visibility...
Identifier
55045, 2023-001AN
Orbit
SSO
Country
Flag of UnknownUnknown / ARGN
Related business
Manufacturer
URUGUS S.A.
Mission
Operational Commercial Imaging
Bus & Motor
NEWSAT V, Unknown motor
Mass
41.5 kg wet, 38.5 kg dry
Launch date (UTC)
2023-01-03 (3 years ago)
Launch vehicle
FALCON 9
Launch site
Air Force Eastern Test Range (AFETR)
Object type
Payload
Rocket body
Debris
Shape & HBR
Box, 1.0 m
Radar Cross Section
0.542 m², Medium (>0.1 m² and < 1m²)

Expand to show TLE details & history
Last TLE update: 16 hours ago

TLE from 16 hours ago
0 NUSAT-34 (AMELIA EARHART
1 55045U 23001AN  25306.49355422  .00012200  00000-0  48949-3 0  9997
2 55045  97.3668   7.7982 0008629 160.0892 200.0684 15.25098090157646
Epoch: 2025-11-02T11:50Z
TLE epoch observation values (Epoch: 2025-11-02T11:50:43.084Z)
Latitude
-0.00007°
Longitude
148.11021°
Altitude
499.158 km
Speed
7.612 km/s
True Right ascension
00h 31m 11s
True Declination
0° 00' 00"
Sunlit
Object was in full shadow at epoch
Visualization orbit readout
Latitude
Unknown
Longitude
Unknown
Altitude
Unknown
Speed
Unknown
Apparent Right ascension
Unknown
Apparent Declination
Unknown
Sunlit
N/A
Visualization observer readout
Local Sidereal Time
23:25:45
Azimuth
Unknown
Elevation
Unknown
Doppler factor
Unknown
Orbital elements
Apogee altitude
493.373 km
Perigee altitude
481.524 km
Semi-major axis
6,865.585 km
Eccentricity
0.00086
Inclination
97.3668°
RAAN
7.7982°
Arg. of periapsis
160.0892°
True anomaly
200.0345°
Mean anomaly
200.0684°
Eccentric anomaly
200.05145°
Mean motion
3.81528 °/min
Orbital period
94.36 mins
BSTAR
0.00048949
Loading maneuver chart data...
Computing Atmospheric mass density...
Loading historical data...
Loading historical data...
Loading historical data...
Loading historical data...
Loading historical data...
Loading historical data...
Loading historical data...

Documentation

Showing up to 5 results
|